[[{"header":{"parameterUnit":"m.s-1","parameterCategory":1,"la1":30.2991,"la2":30.254,"lo1":-89.0895,"lo2":-89.0444,"dy":0.0017,"dx":0.0017,"nx":28,"ny":28,"refTime":"2024-05-07T21:00:00:Z","depth":0,"parameterNumber":2,"parameterNumberName":"U-component_of_WINDS"},"data":[0,0,0,0,0,0,0,0,0,0,0,0,0,0,0,0,0,0,0,0,0,0,0,0,0,0,0,0,0,0,0,0,0,0,0,0,0,0,0,0,0,0,0,0,0,0,0,0,0,0,0,0,0,0,0,0,0,0,0.0987,0.0987,0,0.0992,0.0992,0.0992,0.0981,0.0981,0.098,0.098,0.0986,0.0986,0.0986,0,0,0,0,0,0,0,0,0,0,0,0,0,0.0966,0.0966,0.0987,0.0987,0.0987,0.0992,0.0992,0.0992,0.0981,0.0981,0.098,0.098,0.0985,0.0986,0.0987,0,0,0,0,0,0,0,0,0,0,0,0,0,0.0973,0.0967,0.0987,0.0982,0.0981,0.0992,0.0992,0.0992,0.0981,0.0981,0.098,0.0979,0.0985,0.0986,0.0987,0.1002,0,0,0.0989,0.0989,0,0,0,0,0,0,0,0,0.0973,0.0974,0.0982,0.0982,0.0982,0.0985,0.0987,0.0995,0.0981,0.0981,0.098,0.0979,0.0986,0.0987,0.0989,0.1002,0.1003,0.0989,0.0989,0.099,0.099,0,0,0,0,0,0,0,0.0973,0.0974,0.0989,0.0983,0.0982,0.0979,0.098,0.0988,0.0987,0.0981,0.098,0.0981,0.0986,0.0988,0.0989,0.1003,0.0989,0.099,0.099,0.099,0.1028,0.1028,0,0,0,0,0,0,0.0973,0.0974,0.0989,0.0989,0.0976,0.098,0.098,0.0985,0.0986,0.0986,0.0982,0.0981,0.0987,0.0988,0.0989,0.1006,0.099,0.099,0.0991,0.1027,0.1028,0.1028,0,0,0,0,0,0,0.0972,0.0974,0.0988,0.0981,0.0983,0.0981,0.0986,0.0985,0.0987,0.0987,0.0986,0.0985,0.0987,0.0988,0.0999,0.1006,0.0991,0.0991,0.1026,0.1027,0.1028,0.1041,0,0,0,0,0,0,0.0972,0.0974,0.098,0.0981,0.0983,0.0998,0.0986,0.0986,0.0989,0.0988,0.0989,0.0989,0.0986,0.0997,0.0999,0.1007,0.0992,0.1026,0.1027,0.1028,0.104,0.1043,0.1045,0,0,0,0,0,0.0971,0.0984,0.0981,0.0982,0.0991,0.0999,0.1,0.0996,0.0989,0.0995,0.0995,0.0989,0.1005,0.0999,0.1001,0.1009,0.1025,0.1026,0.1028,0.1039,0.1042,0.1045,0,0,0,0,0,0,0.0984,0.0984,0.098,0.0994,0.0996,0.0997,0.1004,0.0999,0.1004,0.1002,0.0998,0.0998,0.101,0.101,0.1003,0.1023,0.1014,0.1016,0.1022,0.1025,0.1027,0.1027,0.0993,0,0,0,0,0,0.0989,0.0996,0.0995,0.1007,0.1008,0.1006,0.1009,0.1006,0.1009,0.101,0.101,0.1012,0.1017,0.1021,0.1026,0.104,0.104,0.1047,0.1049,0.1051,0.1052,0.1058,0.1061,0.1032,0.1032,0.1032,0,0,0.0999,0.0999,0.1004,0.101,0.1011,0.1018,0.1007,0.1015,0.1019,0.1011,0.1021,0.1021,0.1023,0.1035,0.104,0.1036,0.106,0.1052,0.1054,0.1054,0.106,0.1063,0.1065,0.1033,0.1033,0.1033,0,0,0.1019,0.1021,0.103,0.1032,0.1034,0.1032,0.1034,0.1035,0.1034,0.1044,0.1037,0.1043,0.1053,0.1054,0.1056,0.1076,0.107,0.1077,0.1089,0.1095,0.1097,0.1099,0.1106,0.1108,0.1079,0.1079,0.1079,0,0.1031,0.104,0.1036,0.1044,0.1046,0.1038,0.1048,0.1049,0.1053,0.1055,0.1049,0.1061,0.1062,0.1073,0.1078,0.108,0.1082,0.1077,0.1097,0.1099,0.1101,0.1107,0.1109,0.108,0.108,0.108,0.108,0,0.1054,0.1061,0.1068,0.1071,0.1075,0.1084,0.108,0.1084,0.108,0.1079,0.1088,0.1089,0.1093,0.1096,0.1093,0.1107,0.1104,0.1098,0.1089,0.1105,0.111,0.1112,0.1081,0.1081,0.108,0.108,0,0,0.1084,0.1084,0.1086,0.1087,0.1088,0.1093,0.1101,0.1105,0.1108,0.1111,0.1117,0.1125,0.1119,0.1121,0.1118,0.1123,0.1138,0.1117,0.1117,0.112,0.1152,0.1157,0.1159,0.1134,0.1135,0.1135,0.1152,0,0.1104,0.1117,0.1113,0.1126,0.1132,0.1123,0.113,0.1131,0.113,0.1134,0.1132,0.1138,0.113,0.1131,0.1136,0.1135,0.1144,0.1134,0.1139,0.114,0.1139,0.1162,0.1167,0.1183,0.1154,0.1155,0.1155,0,0.1129,0.1131,0.1145,0.1144,0.1146,0.1153,0.1155,0.116,0.116,0.1159,0.1161,0.1156,0.1163,0.1154,0.1163,0.1156,0.1158,0.1158,0.1158,0.1158,0.1148,0.1163,0.1188,0.119,0.1158,0.1158,0.1158,0,0.1148,0.1155,0.1164,0.1165,0.1165,0.1169,0.1169,0.1169,0.1171,0.1174,0.1175,0.1178,0.118,0.1182,0.1178,0.1172,0.1188,0.1179,0.1186,0.1187,0.119,0.119,0.1216,0.1192,0.1192,0.1192,0.1192,0,0.117,0.1179,0.1173,0.1178,0.1187,0.1182,0.1191,0.119,0.119,0.1195,0.1188,0.1193,0.1187,0.1191,0.1188,0.1196,0.1197,0.1195,0.1194,0.1196,0.1196,0.1197,0.1195,0.1193,0.1192,0.1192,0.1192,0,0.1194,0.119,0.1199,0.1197,0.1197,0.1203,0.1202,0.1206,0.1204,0.121,0.1211,0.1208,0.1212,0.1208,0.1212,0.121,0.122,0.1218,0.122,0.1219,0.1227,0.1226,0.1254,0.1257,0.1232,0.1232,0.1232,0,0.1208,0.1214,0.1213,0.1215,0.1215,0.122,0.1222,0.1216,0.1219,0.1219,0.1224,0.1227,0.123,0.1237,0.1235,0.1237,0.1235,0.1244,0.1235,0.1236,0.1234,0.1234,0.1234,0.1246,0.1247,0.1247,0.1247,0,0.1233,0.1231,0.1234,0.1236,0.1239,0.1241,0.1242,0.1244,0.1239,0.1241,0.1245,0.1247,0.1251,0.1254,0.1256,0.1256,0.125,0.125,0.1252,0.1253,0.1254,0.1253,0.1224,0.1249,0.1249,0.1249,0.1249,0.1249,0.1252,0.1257,0.1256,0.126,0.126,0.1261,0.1265,0.1262,0.1266,0.1268,0.1265,0.1269,0.1269,0.1271,0.1271,0.1274,0.127,0.1273,0.1274,0.1275,0.1275,0.1253,0.1275,0.1275,0.1275,0.1275,0.1275,0,0.1277,0.1275,0.1279,0.128,0.1283,0.1277,0.1277,0.128,0.1284,0.1284,0.1286,0.129,0.1293,0.1291,0.1293,0.1296,0.1294,0.1297,0.1297,0.1296,0.1279,0.1277,0.1299,0.1299,0.1299,0.1299,0.1299,0.1299,0.129,0.1297,0.1294,0.1301,0.13,0.1304,0.1305,0.1306,0.1306,0.131,0.1312,0.1311,0.131,0.1312,0.1314,0.1313,0.1314,0.1318,0.1316,0.13,0.1298,0.1295,0.1293,0.1318,0.1318,0.1333,0.1333,0.1333]},{"header":{"parameterUnit":"m.s-1","parameterCategory":1,"la1":30.2991,"la2":30.254,"lo1":-89.0895,"lo2":-89.0444,"dy":0.0017,"dx":0.0017,"nx":28,"ny":28,"refTime":"2024-05-07T21:00:00:Z","depth":0,"parameterNumber":3,"parameterNumberName":"V-component_of_WINDS"},"data":[0,0,0,0,0,0,0,0,0,0,0,0,0,0,0,0,0,0,0,0,0,0,0,0,0,0,0,0,0,0,0,0,0,0,0,0,0,0,0,0,0,0,0,0,0,0,0,0,0,0,0,0,0,0,0,0,0,0,6.678,6.6779,0,6.6714,6.6713,6.6712,6.6672,6.6672,6.6672,6.6672,6.6597,6.6595,6.6593,0,0,0,0,0,0,0,0,0,0,0,0,0,6.6867,6.6865,6.678,6.6779,6.6779,6.6714,6.6713,6.6712,6.6672,6.6672,6.6672,6.6671,6.6597,6.6595,6.6593,0,0,0,0,0,0,0,0,0,0,0,0,0,6.6818,6.6865,6.678,6.6751,6.6748,6.6714,6.6713,6.6712,6.6672,6.6672,6.6672,6.6671,6.6598,6.6596,6.6593,6.6582,0,0,6.6585,6.6583,0,0,0,0,0,0,0,0,6.682,6.6814,6.6756,6.6753,6.6749,6.6701,6.6716,6.6668,6.6672,6.6701,6.6672,6.6671,6.6631,6.6626,6.6614,6.6578,6.6575,6.6584,6.6583,6.6581,6.6581,0,0,0,0,0,0,0,6.6824,6.6817,6.6754,6.6755,6.6751,6.6739,6.6732,6.6707,6.6668,6.6698,6.6695,6.6688,6.6629,6.6617,6.6612,6.6574,6.6584,6.6582,6.658,6.6579,6.6527,6.6527,0,0,0,0,0,0,6.6833,6.682,6.6756,6.6752,6.6785,6.6738,6.673,6.6717,6.6668,6.6661,6.6688,6.6687,6.6621,6.6615,6.6609,6.6593,6.6581,6.6579,6.6577,6.6527,6.6527,6.6527,0,0,0,0,0,0,6.6835,6.6827,6.6758,6.6785,6.6776,6.6737,6.6722,6.6716,6.6703,6.6661,6.6653,6.6683,6.6621,6.6613,6.659,6.659,6.6578,6.6575,6.6526,6.6527,6.6527,6.6562,0,0,0,0,0,0,6.6837,6.6828,6.6825,6.6785,6.6774,6.6742,6.6722,6.6714,6.6699,6.6696,6.6654,6.6646,6.662,6.6594,6.6587,6.6586,6.6573,6.6526,6.6526,6.6527,6.656,6.6563,6.6566,0,0,0,0,0,6.6841,6.6835,6.6825,6.6817,6.6769,6.6742,6.6735,6.6707,6.6699,6.6695,6.6668,6.6648,6.6592,6.6592,6.6584,6.6582,6.6526,6.6526,6.6527,6.6559,6.6563,6.6566,0,0,0,0,0,0,6.6872,6.6829,6.6817,6.6799,6.6775,6.6735,6.6728,6.6711,6.6686,6.6684,6.6648,6.6639,6.6619,6.6598,6.6599,6.6569,6.6556,6.6555,6.6584,6.6587,6.659,6.6594,6.6571,0,0,0,0,0,6.6878,6.6861,6.6824,6.6811,6.68,6.6767,6.6753,6.6734,6.6706,6.6695,6.6667,6.6639,6.6615,6.66,6.6575,6.6558,6.6548,6.6553,6.6556,6.6558,6.6557,6.6547,6.6549,6.6529,6.6529,6.6529,0,0,6.6887,6.6862,6.6853,6.6817,6.6796,6.6778,6.6758,6.6739,6.6725,6.6691,6.6669,6.6647,6.6614,6.6594,6.6583,6.6575,6.6561,6.6559,6.6561,6.6558,6.6548,6.655,6.6551,6.6529,6.6529,6.6529,0,0,6.6896,6.6876,6.6864,6.6844,6.6814,6.6792,6.6789,6.6753,6.6738,6.6715,6.669,6.6672,6.6632,6.661,6.6593,6.6597,6.6577,6.659,6.6603,6.6594,6.6596,6.6597,6.6598,6.6599,6.6589,6.659,6.659,0,6.6912,6.6886,6.6859,6.6843,6.6828,6.68,6.6788,6.6769,6.6731,6.672,6.6713,6.6664,6.6639,6.6614,6.6616,6.6603,6.6598,6.6594,6.6598,6.6599,6.66,6.6601,6.6601,6.6591,6.6591,6.6591,6.6591,0,6.6906,6.6889,6.6883,6.685,6.6835,6.682,6.679,6.6777,6.6761,6.6739,6.6717,6.6687,6.6657,6.665,6.6631,6.6622,6.6619,6.6605,6.6591,6.6604,6.6604,6.6604,6.6594,6.6593,6.6593,6.6592,0,0,6.693,6.6887,6.6885,6.687,6.6836,6.6821,6.6806,6.6779,6.6769,6.6744,6.673,6.6698,6.6686,6.6668,6.6647,6.6639,6.6645,6.6626,6.6625,6.6631,6.6633,6.6643,6.6644,6.6633,6.6632,6.6632,6.6636,0,6.6934,6.6907,6.6885,6.6865,6.6849,6.6824,6.681,6.6787,6.6768,6.675,6.6727,6.6705,6.6691,6.668,6.6671,6.6646,6.6645,6.6645,6.6617,6.6617,6.6626,6.6644,6.6654,6.6659,6.6636,6.6636,6.6636,0,6.6934,6.6914,6.6895,6.6864,6.6856,6.6845,6.6819,6.6803,6.6776,6.6763,6.6744,6.6723,6.6705,6.6694,6.6668,6.667,6.6657,6.6643,6.6642,6.6638,6.6626,6.6639,6.666,6.666,6.6636,6.6636,6.6636,0,6.6954,6.6922,6.6907,6.6895,6.6859,6.6852,6.6836,6.6809,6.6795,6.6773,6.6764,6.6738,6.6724,6.6705,6.6677,6.6672,6.6654,6.6641,6.6641,6.6642,6.6637,6.6638,6.6655,6.6631,6.6631,6.6631,6.6631,0,6.696,6.6949,6.6916,6.6906,6.6893,6.6866,6.6853,6.6835,6.6812,6.6798,6.6774,6.676,6.6726,6.6708,6.6686,6.6668,6.6662,6.6649,6.6644,6.6651,6.6653,6.6641,6.664,6.6631,6.6631,6.6631,6.6631,0,6.698,6.6957,6.6938,6.6907,6.6899,6.6891,6.6863,6.6852,6.6833,6.6815,6.6809,6.6777,6.6755,6.6727,6.6695,6.6681,6.6665,6.6656,6.6674,6.6671,6.6673,6.6673,6.6683,6.6682,6.6659,6.6659,6.666,0,6.6985,6.6976,6.6945,6.6935,6.6921,6.6905,6.6891,6.6865,6.6852,6.6823,6.6816,6.6793,6.6773,6.6738,6.6711,6.6687,6.6677,6.6683,6.6673,6.6682,6.6677,6.6678,6.6677,6.6685,6.6685,6.6685,6.6686,0,6.6996,6.6986,6.6969,6.6949,6.6935,6.6917,6.6898,6.689,6.686,6.6846,6.6825,6.681,6.678,6.6757,6.673,6.6712,6.6693,6.6689,6.6688,6.6695,6.6706,6.67,6.668,6.6689,6.6688,6.6688,6.6688,6.6688,6.7008,6.7,6.6978,6.696,6.6944,6.6927,6.6916,6.6897,6.6879,6.6854,6.684,6.6819,6.6794,6.6756,6.6739,6.6722,6.6714,6.6713,6.6712,6.6712,6.6714,6.671,6.6716,6.6716,6.6716,6.6716,6.6716,0,6.7018,6.7004,6.6988,6.6964,6.695,6.6937,6.6916,6.6905,6.6888,6.6867,6.6849,6.6825,6.6803,6.6776,6.6753,6.6744,6.6735,6.6738,6.6738,6.6734,6.6722,6.6725,6.6746,6.6746,6.6746,6.6746,6.6746,6.6746,6.7022,6.7008,6.6996,6.6973,6.6958,6.694,6.6929,6.6913,6.6896,6.6872,6.6855,6.6838,6.6815,6.679,6.6769,6.6762,6.6754,6.676,6.6749,6.6738,6.6735,6.6732,6.6736,6.6758,6.6758,6.6763,6.6763,6.6763]}]]